{"data":{"norad_id":55818,"intl_designator":"2023-029Y","name":"ONEWEB-0657","alt_names":[],"object_type":"PAYLOAD","status":"ACTIVE","operator":null,"country":"UK","launch_date":"2023-03-09","launch_site_code":"AFETR","launch_vehicle":null,"mission":null,"orbit_class":"UNKNOWN","rcs_meters":null,"size_class":null,"mass_kg":null,"dimensions":null,"purposes":["comms"],"wikipedia_slug":null,"has_3d_model":false,"image_url":null,"decayed_at":null,"tle_current":{"epoch":"2026-05-25T04:13:53.787072Z","epoch_age_seconds":62984,"freshness":"FRESH","line1":"1 55818U 23029Y   26145.17631698  .00000077  00000+0  15990-3 0  9992","line2":"2 55818  87.9150 309.5621 0002045 113.8105 246.3243 13.19726055155874","mean_motion":13.19726055,"eccentricity":0.0002045,"inclination_deg":87.915,"raan_deg":309.5621,"arg_perigee_deg":113.8105,"mean_anomaly_deg":246.3243,"bstar":0.0001599,"rev_number":15587,"period_min":109.11355387312,"perigee_km":1184.2197026267,"apogee_km":1187.3133391668,"semimajor_km":7563.9035208968,"source":"CELESTRAK","updated_at":"2026-05-25T13:38:22.695044Z"}}}